This is the latest recevied weather packets stored in our database for station/object WX7FGZ-5. If no packets are shown the sender has not sent any weather packets the latest 10 day(s).
| Time | Temp. | Humidity | Pressure | Rain* | Wind** | Luminosity | Snow |
|---|---|---|---|---|---|---|---|
| 1777544974 | -1.67° C | 52% | 1021.2 hPa | 0 mm | - | 0 W/m² | - |
| 1777544675 | -1.11° C | 51% | 1021.3 hPa | 0 mm | - | 0 W/m² | - |
| 1777544374 | -1.11° C | 51% | 1021.4 hPa | 0 mm | - | 0 W/m² | - |
| 1777544081 | -1.11° C | 50% | 1021.4 hPa | 0 mm | - | 0 W/m² | - |
| 1777543774 | -0.56° C | 50% | 1021.5 hPa | 0 mm | - | 0 W/m² | - |
| 1777543484 | -0.56° C | 51% | 1021.5 hPa | 0 mm | - | 0 W/m² | - |
| 1777543175 | -0.56° C | 50% | 1021.6 hPa | 0 mm | - | 0 W/m² | - |
| 1777542874 | -0.56° C | 50% | 1021.5 hPa | 0 mm | - | 0 W/m² | - |
| 1777542274 | -0.56° C | 49% | 1021.4 hPa | 0 mm | - | 0 W/m² | - |
| 1777541974 | -0.56° C | 49% | 1021.4 hPa | 0 mm | - | 0 W/m² | - |
| 1777541674 | 0° C | 49% | 1021.3 hPa | 0 mm | - | 0 W/m² | - |
| 1777541374 | 0° C | 49% | 1021.4 hPa | 0 mm | - | 0 W/m² | - |
| 1777541076 | 0° C | 48% | 1021.5 hPa | 0 mm | - | 0 W/m² | - |
| 1777540774 | 0.56° C | 47% | 1021.4 hPa | 0 mm | - | 0 W/m² | - |
| 1777540475 | 0.56° C | 47% | 1021.5 hPa | 0 mm | - | 0 W/m² | - |
| 1777540175 | 0.56° C | 47% | 1021.5 hPa | 0 mm | - | 0 W/m² | - |
| 1777539874 | 0.56° C | 47% | 1021.4 hPa | 0 mm | - | 0 W/m² | - |
| 1777539274 | 0.56° C | 46% | 1021.5 hPa | 0 mm | - | 0 W/m² | - |
| 1777538675 | 0.56° C | 47% | 1021.3 hPa | 0 mm | - | 0 W/m² | - |
| 1777538375 | 0.56° C | 48% | 1021.5 hPa | 0 mm | - | 0 W/m² | - |
| 1777537474 | 1.67° C | 44% | 1021.5 hPa | 0 mm | - | 0 W/m² | - |
| 1777537174 | 1.67° C | 44% | 1021.6 hPa | 0 mm | - | 0 W/m² | - |
| 1777536874 | 1.67° C | 44% | 1021.7 hPa | 0 mm | - | 0 W/m² | - |
| 1777536275 | 1.67° C | 44% | 1022.3 hPa | 0 mm | - | 0 W/m² | - |
| 1777535975 | 2.22° C | 43% | 1022.5 hPa | 0 mm | - | 0 W/m² | - |
* Rain latest hour (hover to see other rain measurements)
** Current wind speed in m/s (hover to see current wind gust speed)